When you browse on this site, cookies collect data to enhance your experience and personalize the content and advertising you see.
Visit our Privacy Policy to learn more. By continuing to use the site, you agree to this use of cookies and data.
  • Em Portugal
  • Lista de países
  • Para 7 dias
  • Temperatura da água
  • Mapas de satélite
  • Mapa do tempo
  • Widgets de tempo
  • user-avatar
    Iniciar Sessão

    Previsão horária em Adamowo

    Hoje, 17 Julho, Quarta-feira

    Tempo Temperatura Precipitação Vento Pressão Humidade
    00:00 +13°C° 0.3 mm 3 m/s 753 mmHg 90%
    01:00 +13°C° 0.3 mm 4 m/s 753 mmHg 93%
    02:00 +12°C° 0.1 mm 4 m/s 753 mmHg 94%
    03:00 +12°C° 0.1 mm 3 m/s 752 mmHg 94%
    04:00 +11°C° 0.1 mm 3 m/s 752 mmHg 94%
    05:00 +12°C° 0.1 mm 4 m/s 752 mmHg 92%
    06:00 +13°C° 0.1 mm 5 m/s 752 mmHg 90%
    07:00 +14°C° 0.1 mm 6 m/s 753 mmHg 88%
    08:00 +15°C° 0.3 mm 6 m/s 753 mmHg 83%
    09:00 +16°C° 0.3 mm 6 m/s 753 mmHg 79%
    10:00 +17°C° 0.3 mm 6 m/s 754 mmHg 74%
    11:00 +19°C° 0.1 mm 6 m/s 754 mmHg 70%
    12:00 +19°C° 0.1 mm 6 m/s 754 mmHg 66%
    13:00 +19°C° 0.1 mm 6 m/s 754 mmHg 62%
    14:00 +19°C° 0 mm 6 m/s 754 mmHg 64%
    15:00 +19°C° 0 mm 6 m/s 754 mmHg 65%
    16:00 +17°C° 0 mm 5 m/s 754 mmHg 67%
    17:00 +16°C° 0 mm 5 m/s 755 mmHg 71%
    18:00 +15°C° 0 mm 4 m/s 755 mmHg 76%
    19:00 +14°C° 0 mm 3 m/s 755 mmHg 81%
    20:00 +13°C° 0 mm 3 m/s 755 mmHg 85%
    21:00 +13°C° 0 mm 2 m/s 755 mmHg 89%
    22:00 +10°C° 0 mm 2 m/s 755 mmHg 93%
    23:00 +10°C° 0 mm 2 m/s 755 mmHg 94%

    Amanhã, 18 Julho, Quinta-feira

    Tempo Temperatura Precipitação Vento Pressão Humidade
    00:00 +10°C° 0 mm 2 m/s 756 mmHg 95%
    01:00 +10°C° 0 mm 2 m/s 756 mmHg 95%
    02:00 +10°C° 0 mm 2 m/s 756 mmHg 96%
    03:00 +10°C° 0 mm 2 m/s 756 mmHg 96%
    04:00 +10°C° 0 mm 2 m/s 756 mmHg 96%
    05:00 +13°C° 0 mm 2 m/s 756 mmHg 92%
    06:00 +14°C° 0 mm 2 m/s 756 mmHg 87%
    07:00 +16°C° 0 mm 2 m/s 756 mmHg 83%
    08:00 +17°C° 0 mm 2 m/s 756 mmHg 77%
    09:00 +19°C° 0 mm 2 m/s 756 mmHg 71%
    10:00 +20°C° 0 mm 2 m/s 756 mmHg 65%
    11:00 +20°C° 0 mm 2 m/s 756 mmHg 64%
    12:00 +21°C° 0 mm 2 m/s 756 mmHg 62%
    13:00 +21°C° 0 mm 2 m/s 756 mmHg 60%
    14:00 +21°C° 0 mm 2 m/s 756 mmHg 60%
    15:00 +21°C° 0 mm 2 m/s 755 mmHg 61%
    16:00 +21°C° 0 mm 2 m/s 755 mmHg 61%
    17:00 +20°C° 0 mm 2 m/s 755 mmHg 68%
    18:00 +19°C° 0 mm 2 m/s 755 mmHg 74%
    19:00 +18°C° 0 mm 2 m/s 756 mmHg 81%
    20:00 +16°C° 0 mm 2 m/s 756 mmHg 84%
    21:00 +15°C° 0 mm 1 m/s 756 mmHg 86%
    22:00 +13°C° 0 mm 1 m/s 756 mmHg 89%
    23:00 +13°C° 0 mm 1 m/s 756 mmHg 88%

    Depois de amanhã, 19 Julho, Sexta-feira

    Tempo Temperatura Precipitação Vento Pressão Humidade
    00:00 +13°C° 0 mm 1 m/s 756 mmHg 87%
    01:00 +12°C° 0 mm 1 m/s 756 mmHg 86%
    02:00 +12°C° 0 mm 1 m/s 756 mmHg 87%
    03:00 +12°C° 0 mm 1 m/s 756 mmHg 87%
    04:00 +12°C° 0 mm 1 m/s 757 mmHg 87%
    05:00 +14°C° 0 mm 1 m/s 757 mmHg 82%
    06:00 +16°C° 0 mm 1 m/s 757 mmHg 78%
    07:00 +19°C° 0 mm 1 m/s 757 mmHg 73%
    08:00 +20°C° 0 mm 1 m/s 757 mmHg 69%
    09:00 +22°C° 0 mm 1 m/s 757 mmHg 64%
    10:00 +23°C° 0 mm 1 m/s 757 mmHg 60%
    11:00 +24°C° 0 mm 1 m/s 757 mmHg 57%
    12:00 +25°C° 0 mm 1 m/s 757 mmHg 54%
    13:00 +25°C° 0 mm 2 m/s 756 mmHg 50%
    14:00 +25°C° 0 mm 1 m/s 756 mmHg 51%
    15:00 +25°C° 0 mm 1 m/s 756 mmHg 52%
    16:00 +25°C° 0 mm 1 m/s 756 mmHg 53%
    17:00 +24°C° 0 mm 1 m/s 756 mmHg 59%
    18:00 +23°C° 0 mm 1 m/s 756 mmHg 65%
    19:00 +22°C° 0 mm 1 m/s 756 mmHg 71%
    20:00 +19°C° 0 mm 2 m/s 757 mmHg 74%
    21:00 +18°C° 0 mm 2 m/s 757 mmHg 77%
    22:00 +17°C° 0 mm 2 m/s 757 mmHg 80%
    23:00 +16°C° 0 mm 2 m/s 757 mmHg 81%

    20 Julho, Sábado

    Tempo Temperatura Precipitação Vento Pressão Humidade
    00:00 +16°C° 0 mm 2 m/s 757 mmHg 82%
    01:00 +15°C° 0 mm 2 m/s 757 mmHg 83%
    02:00 +15°C° 0 mm 2 m/s 757 mmHg 84%
    03:00 +15°C° 0 mm 1 m/s 757 mmHg 85%
    04:00 +15°C° 0 mm 1 m/s 757 mmHg 86%
    05:00 +16°C° 0 mm 1 m/s 757 mmHg 81%
    06:00 +19°C° 0 mm 1 m/s 757 mmHg 75%
    07:00 +21°C° 0 mm 1 m/s 758 mmHg 70%
    08:00 +22°C° 0 mm 1 m/s 758 mmHg 65%
    09:00 +24°C° 0 mm 1 m/s 758 mmHg 60%
    10:00 +25°C° 0 mm 1 m/s 758 mmHg 56%
    11:00 +26°C° 0 mm 1 m/s 758 mmHg 53%
    12:00 +27°C° 0 mm 1 m/s 758 mmHg 50%
    13:00 +28°C° 0 mm 1 m/s 758 mmHg 47%
    14:00 +28°C° 0 mm 1 m/s 758 mmHg 48%
    15:00 +28°C° 0 mm 1 m/s 758 mmHg 50%
    16:00 +28°C° 0 mm 1 m/s 758 mmHg 51%
    17:00 +26°C° 0 mm 2 m/s 758 mmHg 58%
    18:00 +25°C° 0 mm 2 m/s 758 mmHg 66%
    19:00 +22°C° 0 mm 3 m/s 758 mmHg 73%
    20:00 +21°C° 0 mm 3 m/s 758 mmHg 74%
    21:00 +20°C° 0 mm 3 m/s 758 mmHg 75%
    22:00 +19°C° 0 mm 3 m/s 758 mmHg 77%
    23:00 +18°C° 0 mm 3 m/s 758 mmHg 76%

    21 Julho, Domingo

    Tempo Temperatura Precipitação Vento Pressão Humidade
    00:00 +18°C° 0 mm 3 m/s 758 mmHg 75%
    01:00 +18°C° 0 mm 3 m/s 758 mmHg 74%
    02:00 +18°C° 0 mm 3 m/s 758 mmHg 74%
    03:00 +17°C° 0 mm 3 m/s 758 mmHg 75%
    04:00 +17°C° 0 mm 3 m/s 758 mmHg 75%
    05:00 +19°C° 0 mm 3 m/s 758 mmHg 74%
    06:00 +20°C° 0 mm 4 m/s 758 mmHg 73%
    07:00 +21°C° 0 mm 4 m/s 758 mmHg 71%
    08:00 +22°C° 0.6 mm 3 m/s 758 mmHg 73%
    09:00 +24°C° 0.6 mm 3 m/s 758 mmHg 76%
    10:00 +24°C° 0.6 mm 2 m/s 758 mmHg 78%
    11:00 +24°C° 0.8 mm 2 m/s 758 mmHg 79%
    12:00 +24°C° 0.8 mm 2 m/s 757 mmHg 81%
    13:00 +24°C° 0.8 mm 2 m/s 757 mmHg 82%
    14:00 +24°C° 1.3 mm 2 m/s 757 mmHg 81%
    15:00 +24°C° 1.3 mm 3 m/s 757 mmHg 81%
    16:00 +24°C° 1.3 mm 3 m/s 757 mmHg 80%
    17:00 +22°C° 1 mm 3 m/s 757 mmHg 84%
    18:00 +22°C° 1 mm 3 m/s 757 mmHg 87%
    19:00 +21°C° 1 mm 2 m/s 757 mmHg 91%
    20:00 +20°C° 0.4 mm 2 m/s 758 mmHg 92%
    21:00 +20°C° 0.4 mm 1 m/s 758 mmHg 93%
    22:00 +19°C° 0.4 mm 1 m/s 758 mmHg 93%
    23:00 +19°C° 0.1 mm 1 m/s 758 mmHg 94%

    22 Julho, Segunda-feira

    Tempo Temperatura Precipitação Vento Pressão Humidade
    00:00 +18°C° 0.1 mm 2 m/s 758 mmHg 95%
    01:00 +17°C° 0.1 mm 2 m/s 758 mmHg 96%
    02:00 +17°C° 0 mm 2 m/s 759 mmHg 97%
    03:00 +17°C° 0 mm 2 m/s 759 mmHg 97%
    04:00 +17°C° 0 mm 2 m/s 759 mmHg 97%
    05:00 +18°C° 0 mm 3 m/s 759 mmHg 95%
    06:00 +19°C° 0 mm 3 m/s 759 mmHg 92%
    07:00 +20°C° 0 mm 3 m/s 760 mmHg 90%
    08:00 +21°C° 0 mm 3 m/s 760 mmHg 83%
    09:00 +22°C° 0 mm 3 m/s 760 mmHg 76%
    10:00 +25°C° 0 mm 3 m/s 760 mmHg 70%
    11:00 +25°C° 0.3 mm 4 m/s 760 mmHg 70%
    12:00 +25°C° 0.3 mm 4 m/s 760 mmHg 70%
    13:00 +26°C° 0.3 mm 5 m/s 760 mmHg 69%
    14:00 +25°C° 0.1 mm 5 m/s 760 mmHg 70%
    15:00 +25°C° 0.1 mm 5 m/s 760 mmHg 70%
    16:00 +23°C° 0.1 mm 5 m/s 760 mmHg 70%
    17:00 +22°C° 0 mm 4 m/s 761 mmHg 76%
    18:00 +21°C° 0 mm 4 m/s 761 mmHg 82%
    19:00 +20°C° 0 mm 3 m/s 761 mmHg 87%
    20:00 +19°C° 0 mm 3 m/s 761 mmHg 91%
    21:00 +17°C° 0 mm 2 m/s 761 mmHg 94%
    22:00 +16°C° 0 mm 2 m/s 761 mmHg 97%
    23:00 +16°C° 0 mm 2 m/s 761 mmHg 97%
    Mostrar mais